Regional Weather Roundup
Issued by NWS

Home | Current Version | Previous Version | Graphics & Text | Print | Product List | Glossary On
Versions: 1 2 3 4 5 6 7 8 9 10 11 12 13 14 15 16 17 18 19 20 21 22 23 24 25 26 27
000
ASUS45 KCYS 190410
RWRWY

WYOMING REGIONAL WEATHER ROUNDUP
NATIONAL WEATHER SERVICE CHEYENNE WY
1000 PM MDT FRI AUG 18 2017

NOTE:  "FAIR" INDICATES FEW OR NO CLOUDS BELOW 12,000 FEET
WITH NO SIGNIFICANT WEATHER AND/OR OBSTRUCTIONS TO VISIBILITY.

WYZ001-190500-
YELLOWSTONE NATIONAL PARK

CITY           SKY/WX    TMP DP  RH WIND       PRES   REMARKS
LK YELLOWSTONE   N/A     48  38  68 CALM      30.33R
W YELLOWSTONE  NOT AVBL

$$
WYZ002>013-054>058-071-098>099-190500-
NORTHERN WYOMING

CITY           SKY/WX    TMP DP  RH WIND       PRES   REMARKS
JACKSON        FAIR      59  31  34 E6        30.23R
CODY           FAIR      73  34  23 SE7       30.06S
GREYBULL       FAIR      74  44  34 E6        29.95R
WORLAND        FAIR      73  30  20 E9        29.96S
SHERIDAN       FAIR      63  45  51 S5        29.97S
BUFFALO        FAIR      69  35  28 W9        30.06S
GILLETTE       FAIR      64  40  41 S10       30.01S
HULETT         FAIR      68  37  32 S9        30.01F
NEWCASTLE      FAIR      72  36  26 E10G17    30.03S

$$
WYZ014>020-022>026-101>103-190500-
CENTRAL WYOMING

CITY           SKY/WX    TMP DP  RH WIND       PRES   REMARKS
BIG PINEY      FAIR      56  29  35 N12       30.27R
PINEDALE       FAIR      55  32  41 NW9       30.27S
DUBOIS         FAIR      59  28  31 NW9       30.25R
LANDER           N/A    N/A N/A N/A MISG      30.08R
RIVERTON       FAIR      72  28  19 W12       30.09R
CASPER         FAIR      63  38  39 N7        30.09R
DOUGLAS        FAIR      63  46  54 CALM      30.08R

$$
WYZ021-027>030-104>119-190500-
SOUTHERN WYOMING

CITY           SKY/WX    TMP DP  RH WIND       PRES   REMARKS
EVANSTON       FAIR      62  28  27 W10       30.30R
KEMMERER         N/A     61  28  29 NW3       30.30S
FORT BRIDGER   FAIR      65  28  24 W10       30.31S
ROCK SPRINGS   FAIR      68  28  22 SW8       30.25R
RAWLINS        FAIR      64  33  31 W6        30.23R
SARATOGA       MOCLDY    59  37  44 CALM      30.26R
LARAMIE        FAIR      57  36  45 S12       30.27R
CHEYENNE       FAIR      64  45  49 SW8       30.20S
TORRINGTON     FAIR      64  48  56 E8        30.04S
PINE BLUFFS    FAIR      64  46  52 S7        30.14S

$$




USA.gov is the U.S. government's official web portal to all federal, state and local government web resources and services.